Time,TemperatureF,DewpointF,PressureIn,WindDirection,WindDirectionDegrees,WindSpeedMPH,WindSpeedGustMPH,Humidity,HourlyPrecipIn,Conditions,Clouds,dailyrainin,SoftwareType,DateUTC
2013-04-21 00:02:00,49.0,-99.9,30.05,West,271,5.0,8.0,-999,-99.99,,,-99.99,,2013-04-21 07:02:00,
2013-04-21 00:12:00,49.0,-99.9,30.05,WSW,258,7.0,10.0,-999,-99.99,,,-99.99,,2013-04-21 07:12:00,
2013-04-21 00:22:00,49.0,-99.9,30.04,WSW,237,5.0,9.0,-999,-99.99,,,-99.99,,2013-04-21 07:22:00,
2013-04-21 00:42:00,49.0,-99.9,30.05,West,270,4.0,8.0,-999,-99.99,,,-99.99,,2013-04-21 07:42:00,
2013-04-21 00:52:00,49.0,-99.9,30.04,WSW,252,6.0,11.0,-999,-99.99,,,-99.99,,2013-04-21 07:52:00,
2013-04-21 01:02:00,-999.0,-99.9,30.05,WSW,258,6.0,10.0,-999,-99.99,,,-99.99,,2013-04-21 08:02:00,
2013-04-21 01:12:00,49.0,-99.9,30.05,WSW,246,6.0,8.0,-999,-99.99,,,-99.99,,2013-04-21 08:12:00,
2013-04-21 01:22:00,49.0,-99.9,30.05,West,263,6.0,9.0,-999,-99.99,,,-99.99,,2013-04-21 08:22:00,
2013-04-21 01:32:00,-999.0,-99.9,30.05,West,264,3.0,6.0,-999,-99.99,,,-99.99,,2013-04-21 08:32:00,
2013-04-21 01:42:00,-999.0,-99.9,30.05,SW,221,3.0,8.0,-999,-99.99,,,-99.99,,2013-04-21 08:42:00,
2013-04-21 01:52:00,-999.0,-99.9,30.04,West,269,2.0,5.0,-999,-99.99,,,-99.99,,2013-04-21 08:52:00,
2013-04-21 02:02:00,49.0,-99.9,30.04,SW,235,4.0,5.0,-999,-99.99,,,-99.99,,2013-04-21 09:02:00,
2013-04-21 02:12:00,-999.0,-99.9,30.04,WSW,237,3.0,6.0,-999,-99.99,,,-99.99,,2013-04-21 09:12:00,
2013-04-21 02:22:00,-999.0,-99.9,30.04,WNW,292,2.0,7.0,-999,-99.99,,,-99.99,,2013-04-21 09:22:00,
2013-04-21 02:33:00,49.0,-99.9,30.03,West,277,4.0,6.0,-999,-99.99,,,-99.99,,2013-04-21 09:33:00,
2013-04-21 02:43:00,-999.0,-99.9,30.03,West,276,4.0,6.0,-999,-99.99,,,-99.99,,2013-04-21 09:43:00,
2013-04-21 02:53:00,49.0,-99.9,30.03,West,274,4.0,5.0,-999,-99.99,,,-99.99,,2013-04-21 09:53:00,
2013-04-21 03:03:00,49.0,-99.9,30.03,SW,226,3.0,5.0,-999,-99.99,,,-99.99,,2013-04-21 10:03:00,
2013-04-21 03:12:00,49.0,-99.9,30.03,NW,314,2.0,3.0,-999,-99.99,,,-99.99,,2013-04-21 10:12:00,
2013-04-21 03:22:00,-999.0,-99.9,30.02,West,277,0.0,3.0,-999,-99.99,,,-99.99,,2013-04-21 10:22:00,
2013-04-21 03:33:00,49.0,-99.9,30.02,SW,235,0.0,2.0,-999,-99.99,,,-99.99,,2013-04-21 10:33:00,
2013-04-21 03:42:00,49.0,-99.9,30.02,NW,310,2.0,2.0,-999,-99.99,,,-99.99,,2013-04-21 10:42:00,
2013-04-21 03:52:00,49.0,-99.9,30.02,North,-999,-999.0,-999.0,-999,-99.99,,,-99.99,,2013-04-21 10:52:00,
2013-04-21 04:03:00,49.0,-99.9,30.02,SSW,199,1.0,2.0,-999,-99.99,,,-99.99,,2013-04-21 11:03:00,
2013-04-21 04:12:00,-999.0,-99.9,30.02,SSW,206,3.0,4.0,-999,-99.99,,,-99.99,,2013-04-21 11:12:00,
2013-04-21 04:22:00,-999.0,-99.9,30.02,SSW,201,4.0,4.0,-999,-99.99,,,-99.99,,2013-04-21 11:22:00,
2013-04-21 04:34:00,48.0,-99.9,30.01,SSW,209,5.0,9.0,-999,-99.99,,,-99.99,,2013-04-21 11:34:00,
2013-04-21 04:42:00,49.0,-99.9,30.01,SW,219,2.0,3.0,-999,-99.99,,,-99.99,,2013-04-21 11:42:00,
2013-04-21 04:52:00,49.0,-99.9,30.00,SW,222,1.0,2.0,-999,-99.99,,,-99.99,,2013-04-21 11:52:00,
2013-04-21 05:03:00,49.0,-99.9,30.00,SW,218,2.0,2.0,-999,-99.99,,,-99.99,,2013-04-21 12:03:00,
2013-04-21 05:12:00,-999.0,-99.9,30.00,SSW,203,1.0,2.0,-999,-99.99,,,-99.99,,2013-04-21 12:12:00,
2013-04-21 05:22:00,-999.0,-99.9,30.01,SW,226,1.0,2.0,-999,-99.99,,,-99.99,,2013-04-21 12:22:00,
2013-04-21 05:32:00,49.0,-99.9,30.01,SSW,211,1.0,2.0,-999,-99.99,,,-99.99,,2013-04-21 12:32:00,
2013-04-21 05:42:00,49.0,-99.9,30.01,SW,223,1.0,2.0,-999,-99.99,,,-99.99,,2013-04-21 12:42:00,
2013-04-21 05:52:00,49.0,-99.9,30.01,SSW,212,3.0,4.0,-999,-99.99,,,-99.99,,2013-04-21 12:52:00,
2013-04-21 06:01:00,49.0,-99.9,30.01,SSW,199,4.0,4.0,-999,-99.99,,,-99.99,,2013-04-21 13:01:00,
2013-04-21 06:12:00,-999.0,-99.9,30.01,SSW,206,4.0,4.0,-999,-99.99,,,-99.99,,2013-04-21 13:12:00,
2013-04-21 06:22:00,50.0,-99.9,30.01,SSW,207,2.0,3.0,-999,-99.99,,,-99.99,,2013-04-21 13:22:00,
2013-04-21 06:32:00,-999.0,-99.9,30.01,SSW,204,2.0,3.0,-999,-99.99,,,-99.99,,2013-04-21 13:32:00,
2013-04-21 06:42:00,50.0,-99.9,30.01,SSW,210,2.0,3.0,-999,-99.99,,,-99.99,,2013-04-21 13:42:00,
2013-04-21 06:52:00,-999.0,-99.9,30.01,SSW,199,3.0,3.0,-999,-99.99,,,-99.99,,2013-04-21 13:52:00,
2013-04-21 07:02:00,-999.0,-99.9,30.02,South,191,2.0,2.0,-999,-99.99,,,-99.99,,2013-04-21 14:02:00,
2013-04-21 07:11:00,51.0,-99.9,30.02,SSW,201,3.0,3.0,-999,-99.99,,,-99.99,,2013-04-21 14:11:00,
2013-04-21 07:22:00,52.0,-99.9,30.03,SSW,196,2.0,3.0,-999,-99.99,,,-99.99,,2013-04-21 14:22:00,
2013-04-21 07:32:00,53.0,-99.9,30.03,SSE,160,1.0,2.0,-999,-99.99,,,-99.99,,2013-04-21 14:32:00,
2013-04-21 07:42:00,53.0,-99.9,30.04,NNW,329,1.0,2.0,-999,-99.99,,,-99.99,,2013-04-21 14:42:00,
2013-04-21 07:52:00,54.0,-99.9,30.04,NNW,328,0.0,1.0,-999,-99.99,,,-99.99,,2013-04-21 14:52:00,
2013-04-21 08:02:00,55.0,-99.9,30.04,North,-999,-999.0,-999.0,-999,-99.99,,,-99.99,,2013-04-21 15:02:00,
2013-04-21 08:12:00,56.0,-99.9,30.05,East,80,-999.0,2.0,-999,-99.99,,,-99.99,,2013-04-21 15:12:00,
2013-04-21 08:22:00,55.0,-99.9,30.05,North,-999,-999.0,-999.0,-999,-99.99,,,-99.99,,2013-04-21 15:22:00,
2013-04-21 08:33:00,-999.0,-99.9,30.05,NE,52,3.0,3.0,-999,-99.99,,,-99.99,,2013-04-21 15:33:00,
2013-04-21 08:43:00,55.0,-99.9,30.05,NE,47,2.0,3.0,-999,-99.99,,,-99.99,,2013-04-21 15:43:00,
2013-04-21 08:53:00,-999.0,-99.9,30.05,NE,48,2.0,3.0,-999,-99.99,,,-99.99,,2013-04-21 15:53:00,
2013-04-21 09:03:00,56.0,-99.9,30.05,NNE,31,3.0,4.0,-999,-99.99,,,-99.99,,2013-04-21 16:03:00,
2013-04-21 09:13:00,56.0,-99.9,30.05,NE,39,3.0,4.0,-999,-99.99,,,-99.99,,2013-04-21 16:13:00,
2013-04-21 09:23:00,55.0,-99.9,30.05,NE,44,3.0,4.0,-999,-99.99,,,-99.99,,2013-04-21 16:23:00,
2013-04-21 09:33:00,55.0,-99.9,30.06,NE,50,4.0,4.0,-999,-99.99,,,-99.99,,2013-04-21 16:33:00,
2013-04-21 09:42:00,56.0,-99.9,30.06,NE,44,2.0,3.0,-999,-99.99,,,-99.99,,2013-04-21 16:42:00,
2013-04-21 09:53:00,56.0,-99.9,30.06,ENE,62,2.0,3.0,-999,-99.99,,,-99.99,,2013-04-21 16:53:00,
2013-04-21 10:02:00,57.0,-99.9,30.06,NE,48,3.0,4.0,-999,-99.99,,,-99.99,,2013-04-21 17:02:00,
2013-04-21 10:12:00,58.0,-99.9,30.06,NNE,32,3.0,3.0,-999,-99.99,,,-99.99,,2013-04-21 17:12:00,
2013-04-21 10:23:00,58.0,-99.9,30.06,NE,40,2.0,3.0,-999,-99.99,,,-99.99,,2013-04-21 17:23:00,
2013-04-21 10:32:00,-999.0,-99.9,30.06,NE,38,2.0,3.0,-999,-99.99,,,-99.99,,2013-04-21 17:32:00,
2013-04-21 10:42:00,58.0,-99.9,30.06,NE,35,3.0,3.0,-999,-99.99,,,-99.99,,2013-04-21 17:42:00,
2013-04-21 10:52:00,59.0,-99.9,30.06,NNE,27,1.0,2.0,-999,-99.99,,,-99.99,,2013-04-21 17:52:00,
2013-04-21 11:02:00,-999.0,-99.9,30.06,NNW,347,3.0,3.0,-999,-99.99,,,-99.99,,2013-04-21 18:02:00,
2013-04-21 11:11:00,59.0,-99.9,30.06,NNW,334,4.0,4.0,-999,-99.99,,,-99.99,,2013-04-21 18:11:00,
2013-04-21 11:22:00,-999.0,-99.9,30.06,WNW,301,5.0,6.0,-999,-99.99,,,-99.99,,2013-04-21 18:22:00,
2013-04-21 11:33:00,62.0,-99.9,30.06,WNW,287,6.0,7.0,-999,-99.99,,,-99.99,,2013-04-21 18:33:00,
2013-04-21 11:42:00,62.0,-99.9,30.06,West,264,8.0,9.0,-999,-99.99,,,-99.99,,2013-04-21 18:42:00,
2013-04-21 11:52:00,62.0,-99.9,30.06,WSW,247,8.0,11.0,-999,-99.99,,,-99.99,,2013-04-21 18:52:00,
2013-04-21 12:02:00,62.0,-99.9,30.06,WSW,243,10.0,14.0,-999,-99.99,,,-99.99,,2013-04-21 19:02:00,
2013-04-21 12:12:00,60.0,-99.9,30.06,WSW,247,13.0,18.0,-999,-99.99,,,-99.99,,2013-04-21 19:12:00,
2013-04-21 12:22:00,-999.0,-99.9,30.06,WSW,244,14.0,18.0,-999,-99.99,,,-99.99,,2013-04-21 19:22:00,
2013-04-21 12:32:00,60.0,-99.9,30.05,WSW,247,14.0,17.0,-999,-99.99,,,-99.99,,2013-04-21 19:32:00,
2013-04-21 12:43:00,60.0,-99.9,30.05,WSW,246,14.0,17.0,-999,-99.99,,,-99.99,,2013-04-21 19:43:00,
2013-04-21 12:52:00,-999.0,-99.9,30.05,WSW,242,18.0,21.0,-999,-99.99,,,-99.99,,2013-04-21 19:52:00,
2013-04-21 13:02:00,58.0,-99.9,30.04,WSW,241,19.0,21.0,-999,-99.99,,,-99.99,,2013-04-21 20:02:00,
2013-04-21 13:11:00,58.0,-99.9,30.04,WSW,239,15.0,20.0,-999,-99.99,,,-99.99,,2013-04-21 20:11:00,
2013-04-21 13:22:00,58.0,-99.9,30.04,WSW,247,15.0,22.0,-999,-99.99,,,-99.99,,2013-04-21 20:22:00,
2013-04-21 13:32:00,58.0,-99.9,30.03,WSW,238,14.0,21.0,-999,-99.99,,,-99.99,,2013-04-21 20:32:00,
2013-04-21 13:42:00,57.0,-99.9,30.03,WSW,241,19.0,22.0,-999,-99.99,,,-99.99,,2013-04-21 20:42:00,
2013-04-21 13:52:00,58.0,-99.9,30.03,WSW,243,17.0,25.0,-999,-99.99,,,-99.99,,2013-04-21 20:52:00,
2013-04-21 14:02:00,58.0,-99.9,30.03,WSW,246,17.0,22.0,-999,-99.99,,,-99.99,,2013-04-21 21:02:00,
2013-04-21 14:12:00,58.0,-99.9,30.02,WSW,244,16.0,22.0,-999,-99.99,,,-99.99,,2013-04-21 21:12:00,
2013-04-21 14:22:00,57.0,-99.9,30.02,North,-999,-999.0,-999.0,-999,-99.99,,,-99.99,,2013-04-21 21:22:00,
2013-04-21 14:33:00,58.0,-99.9,30.02,WSW,245,16.0,23.0,-999,-99.99,,,-99.99,,2013-04-21 21:33:00,
2013-04-21 14:43:00,58.0,-99.9,30.02,WSW,245,15.0,20.0,-999,-99.99,,,-99.99,,2013-04-21 21:43:00,
2013-04-21 14:53:00,58.0,-99.9,30.01,WSW,249,17.0,21.0,-999,-99.99,,,-99.99,,2013-04-21 21:53:00,
2013-04-21 15:03:00,59.0,-99.9,30.01,WSW,246,15.0,22.0,-999,-99.99,,,-99.99,,2013-04-21 22:03:00,
2013-04-21 15:12:00,59.0,-99.9,30.01,WSW,245,15.0,22.0,-999,-99.99,,,-99.99,,2013-04-21 22:12:00,
2013-04-21 15:22:00,-999.0,-99.9,30.01,WSW,250,16.0,20.0,-999,-99.99,,,-99.99,,2013-04-21 22:22:00,
2013-04-21 15:33:00,58.0,-99.9,30.01,WSW,253,16.0,21.0,-999,-99.99,,,-99.99,,2013-04-21 22:33:00,
2013-04-21 15:43:00,-999.0,-99.9,30.01,West,266,17.0,23.0,-999,-99.99,,,-99.99,,2013-04-21 22:43:00,
2013-04-21 15:53:00,56.0,-99.9,30.01,WSW,252,15.0,20.0,-999,-99.99,,,-99.99,,2013-04-21 22:53:00,
2013-04-21 16:02:00,56.0,-99.9,30.00,WSW,256,14.0,20.0,-999,-99.99,,,-99.99,,2013-04-21 23:02:00,
2013-04-21 16:12:00,55.0,-99.9,30.00,WSW,247,18.0,25.0,-999,-99.99,,,-99.99,,2013-04-21 23:12:00,
2013-04-21 16:22:00,-999.0,-99.9,30.00,WSW,243,21.0,25.0,-999,-99.99,,,-99.99,,2013-04-21 23:22:00,
2013-04-21 16:32:00,55.0,-99.9,29.99,WSW,255,13.0,18.0,-999,-99.99,,,-99.99,,2013-04-21 23:32:00,
2013-04-21 16:43:00,55.0,-99.9,29.99,WSW,257,13.0,23.0,-999,-99.99,,,-99.99,,2013-04-21 23:43:00,
2013-04-21 16:52:00,55.0,-99.9,29.99,West,261,19.0,25.0,-999,-99.99,,,-99.99,,2013-04-21 23:52:00,
2013-04-21 17:02:00,55.0,-99.9,29.99,West,262,16.0,24.0,-999,-99.99,,,-99.99,,2013-04-22 00:02:00,
2013-04-21 17:12:00,55.0,-99.9,29.98,West,265,17.0,23.0,-999,-99.99,,,-99.99,,2013-04-22 00:12:00,
2013-04-21 17:22:00,55.0,-99.9,29.98,West,261,16.0,22.0,-999,-99.99,,,-99.99,,2013-04-22 00:22:00,
2013-04-21 17:32:00,55.0,-99.9,29.97,West,269,17.0,23.0,-999,-99.99,,,-99.99,,2013-04-22 00:32:00,
2013-04-21 17:42:00,55.0,-99.9,29.98,West,260,15.0,21.0,-999,-99.99,,,-99.99,,2013-04-22 00:42:00,
2013-04-21 17:52:00,-999.0,-99.9,29.97,WSW,257,15.0,20.0,-999,-99.99,,,-99.99,,2013-04-22 00:52:00,
2013-04-21 18:01:00,56.0,-99.9,29.97,West,259,14.0,19.0,-999,-99.99,,,-99.99,,2013-04-22 01:01:00,
2013-04-21 18:12:00,55.0,-99.9,29.96,WSW,245,15.0,22.0,-999,-99.99,,,-99.99,,2013-04-22 01:12:00,
2013-04-21 18:22:00,55.0,-99.9,29.96,WSW,248,15.0,21.0,-999,-99.99,,,-99.99,,2013-04-22 01:22:00,
2013-04-21 18:32:00,55.0,-99.9,29.96,WSW,254,16.0,23.0,-999,-99.99,,,-99.99,,2013-04-22 01:32:00,
2013-04-21 18:42:00,55.0,-99.9,29.96,West,262,18.0,23.0,-999,-99.99,,,-99.99,,2013-04-22 01:42:00,
2013-04-21 18:52:00,55.0,-99.9,29.96,WSW,247,15.0,21.0,-999,-99.99,,,-99.99,,2013-04-22 01:52:00,
2013-04-21 19:02:00,55.0,-99.9,29.96,WSW,247,18.0,23.0,-999,-99.99,,,-99.99,,2013-04-22 02:02:00,
2013-04-21 19:12:00,55.0,-99.9,29.95,WSW,248,19.0,24.0,-999,-99.99,,,-99.99,,2013-04-22 02:12:00,
2013-04-21 19:22:00,-999.0,-99.9,29.95,WSW,247,18.0,21.0,-999,-99.99,,,-99.99,,2013-04-22 02:22:00,
2013-04-21 19:32:00,55.0,-99.9,29.95,WSW,248,14.0,22.0,-999,-99.99,,,-99.99,,2013-04-22 02:32:00,
2013-04-21 19:42:00,54.0,-99.9,29.95,WSW,248,11.0,18.0,-999,-99.99,,,-99.99,,2013-04-22 02:42:00,
2013-04-21 19:52:00,53.0,-99.9,29.95,WSW,246,15.0,22.0,-999,-99.99,,,-99.99,,2013-04-22 02:52:00,
2013-04-21 20:02:00,53.0,-99.9,29.95,North,-999,-999.0,-999.0,-999,-99.99,,,-99.99,,2013-04-22 03:02:00,
2013-04-21 20:11:00,-999.0,-99.9,29.95,WSW,242,17.0,23.0,-999,-99.99,,,-99.99,,2013-04-22 03:11:00,
2013-04-21 20:22:00,53.0,-99.9,29.96,WSW,242,13.0,21.0,-999,-99.99,,,-99.99,,2013-04-22 03:22:00,
2013-04-21 20:33:00,53.0,-99.9,29.96,WSW,237,14.0,19.0,-999,-99.99,,,-99.99,,2013-04-22 03:33:00,
2013-04-21 20:43:00,53.0,-99.9,29.96,WSW,239,13.0,19.0,-999,-99.99,,,-99.99,,2013-04-22 03:43:00,
2013-04-21 20:53:00,-999.0,-99.9,29.96,SW,234,12.0,18.0,-999,-99.99,,,-99.99,,2013-04-22 03:53:00,
2013-04-21 21:03:00,53.0,-99.9,29.96,WSW,239,10.0,16.0,-999,-99.99,,,-99.99,,2013-04-22 04:03:00,
2013-04-21 21:13:00,53.0,-99.9,29.97,WSW,243,9.0,16.0,-999,-99.99,,,-99.99,,2013-04-22 04:13:00,
2013-04-21 21:23:00,52.0,-99.9,29.97,North,-999,-999.0,-999.0,-999,-99.99,,,-99.99,,2013-04-22 04:23:00,
2013-04-21 21:33:00,52.0,-99.9,29.98,WSW,254,4.0,12.0,-999,-99.99,,,-99.99,,2013-04-22 04:33:00,
2013-04-21 21:43:00,52.0,-99.9,29.98,SSW,211,3.0,10.0,-999,-99.99,,,-99.99,,2013-04-22 04:43:00,
2013-04-21 21:53:00,-999.0,-99.9,29.98,SSW,200,3.0,8.0,-999,-99.99,,,-99.99,,2013-04-22 04:53:00,
2013-04-21 22:03:00,52.0,-99.9,29.98,West,279,5.0,8.0,-999,-99.99,,,-99.99,,2013-04-22 05:03:00,
2013-04-21 22:12:00,-999.0,-99.9,29.99,SW,225,1.0,9.0,-999,-99.99,,,-99.99,,2013-04-22 05:12:00,
2013-04-21 22:23:00,51.0,-99.9,29.99,West,272,5.0,7.0,-999,-99.99,,,-99.99,,2013-04-22 05:23:00,
2013-04-21 22:33:00,52.0,-99.9,29.99,WNW,289,6.0,9.0,-999,-99.99,,,-99.99,,2013-04-22 05:33:00,
2013-04-21 22:42:00,52.0,-99.9,29.99,West,270,4.0,9.0,-999,-99.99,,,-99.99,,2013-04-22 05:42:00,
2013-04-21 22:52:00,-999.0,-99.9,29.99,West,279,5.0,8.0,-999,-99.99,,,-99.99,,2013-04-22 05:52:00,
2013-04-21 23:02:00,52.0,-99.9,29.99,West,269,3.0,6.0,-999,-99.99,,,-99.99,,2013-04-22 06:02:00,
2013-04-21 23:12:00,52.0,-99.9,29.98,WNW,285,3.0,6.0,-999,-99.99,,,-99.99,,2013-04-22 06:12:00,
2013-04-21 23:22:00,52.0,-99.9,29.98,North,-999,-999.0,-999.0,-999,-99.99,,,-99.99,,2013-04-22 06:22:00,
2013-04-21 23:32:00,52.0,-99.9,29.98,WSW,238,4.0,9.0,-999,-99.99,,,-99.99,,2013-04-22 06:32:00,
2013-04-21 23:42:00,52.0,-99.9,29.98,WSW,243,5.0,8.0,-999,-99.99,,,-99.99,,2013-04-22 06:42:00,
2013-04-21 23:52:00,52.0,-99.9,29.97,WSW,247,5.0,9.0,-999,-99.99,,,-99.99,,2013-04-22 06:52:00,